Location: Dąbrówka
(52.2799°N, 15.8070°E)
Time: 12:06:42
(UTC+02:00)

RS-15 - Visible Passes

Search period start: 19 June 2019 00:00
Search period end: 29 June 2019 00:00
Orbit: 1899 x 2145 km, 64.8° (Epoch: 18 June)

Date Brightness Start Highest point End Pass type
(mag) Time Alt. Az. Time Alt. Az. Time Alt. Az.
19 Jun 8.2 01:35:30 10° NW 01:45:49 50° WSW 01:55:03 14° S visible
19 Jun 8.4 22:46:33 10° NW 22:57:27 61° NNE 23:08:18 10° ESE visible
20 Jun 8.0 00:59:21 10° NW 01:10:02 62° WSW 01:19:33 14° SSE visible
20 Jun 9.2 03:13:45 10° WNW 03:19:54 17° W 03:26:07 10° SW visible
20 Jun 8.6 22:10:17 10° NW 22:21:05 54° NNE 22:31:46 10° ESE visible
21 Jun 7.9 00:23:15 10° NW 00:34:09 74° SW 00:44:08 13° SSE visible
21 Jun 9.0 02:36:47 10° NW 02:44:34 23° W 02:51:50 11° SW visible
21 Jun 7.9 23:47:09 10° NW 23:58:10 87° SW 00:08:48 11° SE visible
22 Jun 8.7 02:00:13 10° NW 02:09:06 30° WSW 02:16:31 14° SSW visible
22 Jun 8.0 23:11:02 10° NW 23:22:05 81° NE 23:33:08 10° SE visible
23 Jun 8.5 01:23:52 10° NW 01:33:33 39° WSW 01:41:15 17° SSW visible
23 Jun 8.2 22:34:53 10° NW 22:45:54 70° NE 22:56:53 10° ESE visible
24 Jun 8.3 00:47:39 10° NW 00:57:53 49° WSW 01:06:03 18° S visible
24 Jun 9.4 03:04:33 10° WNW 03:07:08 11° W 03:09:43 10° WSW visible
24 Jun 8.4 21:58:42 10° NW 22:09:37 62° NNE 22:20:30 10° ESE visible
25 Jun 8.1 00:11:30 10° NW 00:22:07 60° WSW 00:30:53 17° SSE visible
25 Jun 9.3 02:26:03 10° WNW 02:31:55 16° W 02:37:50 10° SW visible
25 Jun 8.0 23:35:22 10° NW 23:46:15 72° SW 23:55:47 15° SSE visible
26 Jun 9.1 01:49:01 10° NW 01:56:35 22° W 02:03:30 12° SW visible
26 Jun 8.0 22:59:16 10° NW 23:10:17 85° SW 23:20:43 12° SE visible
27 Jun 8.8 01:12:24 10° NW 01:21:09 29° WSW 01:28:26 14° SSW visible
27 Jun 8.0 22:23:10 10° NW 22:34:13 82° NE 22:45:17 10° SE visible
28 Jun 8.6 00:36:02 10° NW 00:45:36 37° WSW 00:53:25 16° SSW visible
